metlocid,date_time,avg_dist_to_surface,std_dist_to_surface,min_dist_to_surface,max_dist_to_surface,n_dist_to_surface,n_comments
TARM,1/1/04,90.83888868,0.491642954,89.9,91.9,720,0
TARM,2/1/04,91.62500005,1.415201452,87.6,92.9,2784,0
TARM,3/1/04,88.91695824,1.683917739,87,93.5,2972,4
TARM,4/1/04,93.07486119,0.272930545,92.4,94,2880,0
TARM,5/1/04,93.31332466,0.37497958,92.6,94.5,2972,4
TARM,6/1/04,94.19068155,0.648666912,92.6,96.1,2876,4
TARM,7/1/04,94.86827981,0.20452513,94.3,95.7,2976,0
TARM,8/1/04,95.20820977,0.434400905,92.5,96.2,2972,4
TARM,9/1/04,95.96694448,0.21681065,95.1,96.7,2880,0
TARM,10/1/04,96.38346777,0.313305359,95.1,97.6,2976,0
TARM,11/1/04,98.34416686,1.129868574,96.6,100.5,2880,0
TARM,12/1/04,103.006586,1.522923582,100.3,105.9,2976,0
TARM,1/1/05,106.7149195,1.026744696,105,109.1,2976,0
TARM,2/1/05,108.7485839,0.730952437,105.9,110.1,2684,4
TARM,3/1/05,108.5998656,1.539804805,107,111.3,2976,0
TARM,4/1/05,110.1369444,1.34248303,105.8,111.9,2880,0
TARM,5/1/05,110.8041665,1.030491128,106.8,112.5,2976,0
TARM,6/1/05,111.6405557,0.67590474,104.9,113,2880,0
TARM,7/1/05,112.6744598,0.155718839,111.7,113.3,2976,0
TARM,8/1/05,112.8290296,0.390291456,112.7,114.5,2976,0
TARM,9/1/05,113.9352774,0.382027785,112.4,115.1,2880,0
TARM,10/1/05,115.4294356,0.488228386,114.2,117.6,2976,0
TARM,11/1/05,117.6727776,1.111077608,115.7,119.9,2880,0
TARM,12/1/05,121.7608872,1.322849842,119.7,125.1,2976,0
TARM,1/1/06,127.4431453,1.689777252,124.4,130.3,2976,0
TARM,2/1/06,130.2077381,1.701663971,123.5,131.9,2688,0
TARM,3/1/06,131.2083334,0.946706494,125.3,132.4,2976,0
TARM,4/1/06,131.8538892,0.244449376,130.9,132.7,2880,0
TARM,5/1/06,132.1947585,0.269826094,131.2,133.3,2976,0
TARM,6/1/06,132.1519447,1.820418622,124.5,133.7,2880,0
TARM,7/1/06,132.9840021,0.231560564,131.9,134.2,2976,0
TARM,8/1/06,133.5236559,0.152882364,132.7,134.2,2976,0
TARM,9/1/06,134.485278,0.325769632,133.8,135.9,2880,0
TARM,10/1/06,135.0420697,0.259316332,134.2,136.2,2976,0
TARM,11/1/06,135.8631945,1.121252538,132.8,137.8,2880,0
TARM,12/1/06,137.123079,0.153178053,136.3,137.4,156,2810
TARM,1/1/07,36.27215855,0.144979374,35.9,36.7,1918,1056
TARM,2/1/07,35.78988112,0.269725861,34.9,36.3,2688,0
TARM,3/1/07,36.62452824,0.523494029,35.1,37.2,2968,8
TARM,4/1/07,37.14361084,0.136906823,36.8,37.6,2880,0
TARM,5/1/07,37.86975771,0.448473825,37.3,39.1,2976,0
TARM,6/1/07,39.05541655,0.280521759,38.5,39.9,2880,0
TARM,7/1/07,39.73467743,0.255323856,39.3,40.6,2976,0
TARM,8/1/07,40.87419314,0.296726062,40.1,41.3,2976,0
TARM,9/1/07,41.54749981,0.335914268,40.9,42.7,2880,0
TARM,10/1/07,42.89274176,0.435347199,40.8,44.1,2976,0
TARM,11/1/07,44.37527781,0.706030027,43.1,45.8,2880,0
TARM,12/1/07,48.42004046,2.036422963,45.5,51.9,2974,2
TARM,1/1/08,50.82594087,1.789609336,43.3,53.3,2976,0
TARM,2/1/08,53.47183914,0.695458241,52,54.5,2784,0
TARM,3/1/08,54.97594093,0.408151214,54.3,56.1,2976,0
TARM,4/1/08,55.87222211,0.245004178,55.3,56.5,2880,0
TARM,5/1/08,56.41169364,0.219420919,55.7,57,2976,0
TARM,6/1/08,56.88138899,0.365193679,56.1,58.1,2880,0
TARM,7/1/08,57.60080636,0.195957416,57.2,58.3,2976,0
TARM,8/1/08,58.36599473,0.571207943,57,60,2976,0
TARM,9/1/08,59.54527779,0.42968026,58.6,61,2880,0
TARM,10/1/08,60.28037622,0.223805263,59.7,61.3,2976,0
TARM,11/1/08,62.18944432,1.314445084,60.3,64.7,2880,0
TARM,12/1/08,67.21196208,1.995222389,63.9,73.1,2976,0
TARM,1/1/09,76.00833341,1.655291596,72.8,79,2976,0
TARM,2/1/09,79.73928598,0.484739577,78.3,81,2688,0
TARM,3/1/09,81.00591394,0.321119907,80.3,82.2,2976,0
TARM,4/1/09,81.42055552,0.246731324,80.8,82.2,2880,0
TARM,5/1/09,82.03293014,0.185827467,81.6,82.9,2976,0
TARM,6/1/09,82.411806,0.177941537,81.8,83.1,2880,0
TARM,7/1/09,83.26411276,0.288658306,82.5,84.1,2976,0
TARM,8/1/09,84.12096752,0.349045442,83.5,85.3,2976,0
TARM,9/1/09,85.20625019,0.488963722,84.2,86.3,2880,0
TARM,10/1/09,86.27190838,0.387403298,85.4,87.1,2976,0
TARM,11/1/09,87.65263902,0.905553992,82.4,89.5,2880,0
TARM,12/1/09,92.17661307,1.593707393,89.3,95.1,2976,0
TARM,1/1/10,97.25913956,1.671856023,94.6,100.4,2976,0
TARM,2/1/10,100.660119,0.559268758,99.2,102.3,2688,0
TARM,3/1/10,102.833468,0.2701923,102,103.9,2976,0
TARM,4/1/10,103.1705551,0.183879023,102.6,104,2880,0
TARM,5/1/10,103.4127692,0.184103132,102.9,104.2,2976,0
TARM,6/1/10,103.5076393,0.184150763,103,104.4,2880,0
TARM,7/1/10,103.8145481,0.238025295,103.2,104.8,2887,89
TARM,8/1/10,,,,,0,2976
TARM,9/1/10,104.9139817,0.237717947,104.5,105.6,1552,1328
TARM,10/1/10,104.9768823,0.179194344,104.6,105.7,2976,0
TARM,11/1/10,107.1205553,1.045658488,105.3,109.2,2880,0
TARM,12/1/10,112.6899193,2.649885858,108.7,117.1,2976,0
TARM,1/1/11,120.0629032,1.796847296,116.1,123.5,2976,0
TARM,2/1/11,123.1066964,0.651813048,120,125.3,2688,0
TARM,3/1/11,124.3946237,0.345104589,123.2,126.2,2976,0
TARM,4/1/11,124.8769446,0.283130312,124.3,125.7,2880,0
TARM,5/1/11,125.4551074,0.32755941,124.7,126.3,2976,0
TARM,6/1/11,126.7437495,0.455100142,125.7,127.8,2880,0
TARM,7/1/11,127.4545698,0.434332844,126.5,128.8,2976,0
TARM,8/1/11,128.8903224,0.39531744,126.5,130.1,2976,0
TARM,9/1/11,130.4027779,0.720748341,128.8,132.5,2880,0
TARM,10/1/11,131.493414,0.573660063,130.3,133.1,2976,0
TARM,11/1/11,133.9712497,1.040289434,131.7,136.9,2880,0
TARM,12/1/11,66.01567576,15.46463569,59.8,136.5,2960,16
TARM,1/1/12,67.27970429,2.597359595,62.9,71.8,2976,0
TARM,2/1/12,66.01594808,0.847013193,64,67.8,2784,0
TARM,3/1/12,68.35430139,0.211552656,67.7,68.9,2976,0
TARM,4/1/12,68.81499991,0.319078146,68.3,69.7,2880,0
TARM,5/1/12,70.89690871,0.881665711,69.1,72,2976,0
TARM,6/1/12,72.34708418,0.494602899,71.6,73.2,2880,0
TARM,7/1/12,72.93837709,0.38898675,72.3,73.9,2749,0
TARM,3/1/13,73.33511412,0.256960952,72,73.9,2620,0
TARM,4/1/13,73.79194452,0.376808156,72.4,74.5,2880,0
TARM,5/1/13,74.2826613,0.678729644,64.3,74.9,2976,0
TARM,6/1/13,74.88527742,0.209678814,74.5,75.5,2880,0
TARM,7/1/13,75.26868238,0.14417794,74.7,76,2976,0
TARM,8/1/13,76.09193543,0.401562443,75,77.1,2976,0
TARM,9/1/13,77.20916678,0.720271208,74.5,78.4,2880,0
TARM,10/1/13,77.94516131,0.354832698,76.4,78.9,2976,0
TARM,11/1/13,73.81181372,7.142129286,62.4,80.4,2878,2
TARM,12/1/13,66.26021493,1.054164954,64,69,2976,0
TARM,1/1/14,71.54771508,4.005135647,61.2,76.1,2976,2274
TARM,2/1/14,64.80163668,1.428399481,61.9,66.9,2688,2688
TARM,3/1/14,66.9114248,0.454524631,65.4,67.6,2976,2976
TARM,4/1/14,67.9933328,0.586128551,67.2,69.6,2880,2880
TARM,5/1/14,69.46599394,0.323072381,68.7,70.2,2976,2976
TARM,6/1/14,70.46305575,0.296553112,69.9,71.3,2880,2880
TARM,7/1/14,71.14919396,0.356601839,70.6,71.9,2976,2976
TARM,8/1/14,71.937903,0.338083987,71.1,72.7,2976,2976
TARM,9/1/14,73.26847241,0.356304085,72.4,74.3,2880,2880
TARM,10/1/14,74.34596781,0.650551428,69.3,75.8,2976,2976
TARM,11/1/14,76.62361113,0.673993266,75.4,78.4,2880,2880
TARM,12/1/14,69.86577005,4.329469147,0,79.4,2974,2974
TARM,1/1/15,71.86881719,1.252303817,69.3,74.2,2976,2976
TARM,2/1/15,76.21532744,1.159952059,73.9,78,2688,2688
TARM,3/1/15,77.98642458,0.184774609,77.4,78.8,2976,2976
TARM,4/1/15,78.07592883,0.172784499,77.1,78.7,2879,2879
TARM,5/1/15,78.32553831,0.127628175,77.6,78.7,2976,2976
TARM,6/1/15,78.70680571,0.147583564,77.8,79.1,2880,2880
TARM,7/1/15,79.12809136,0.220199372,77.9,79.7,2976,2976
TARM,8/1/15,79.56814476,0.440801435,76.8,80.3,2976,2976
TARM,9/1/15,80.58388921,0.314372768,79.8,82,2880,2880
TARM,10/1/15,82.33266122,0.578884928,81,83.8,2976,2976
TARM,11/1/15,84.64541649,1.181309133,83,87.2,2880,2880
TARM,12/1/15,70.67733247,3.960000487,67.2,88.2,2969,2972
TARM,1/1/16,74.54529568,1.700998514,72,77.9,2976,2976
TARM,2/1/16,79.63333344,0.783229488,77.7,81.1,2784,2784
TARM,3/1/16,80.82156347,0.162700283,80.4,81.4,2968,2976
TARM,4/1/16,81.12527784,0.167527011,80.6,81.7,2880,2880
TARM,5/1/16,81.74623677,0.468961379,81.1,83,2976,2976
TARM,6/1/16,82.91208372,0.162580879,82.3,83.5,2880,2880
TARM,7/1/16,83.12728488,0.190306525,82.4,83.7,2976,2976
TARM,8/1/16,83.8211015,0.294940215,81.9,84.5,2976,2976
TARM,9/1/16,84.50569494,0.261044296,83.6,85.5,2880,2880
TARM,10/1/16,85.64005413,0.428821222,84.7,87,2976,2976
TARM,11/1/16,88.02180546,1.190939335,85.7,90.1,2880,2880
TARM,12/1/16,70.33039659,12.34581827,61,91.3,2974,2974
TARM,1/1/17,65.06424732,1.57837864,58,67.9,2976,2976
TARM,2/1/17,68.50535711,0.719281978,67,70,2688,2688
TARM,3/1/17,69.83279575,0.254465746,69.3,71.1,2976,2976
TARM,4/1/17,70.40958349,0.172688503,69.9,71,2880,2880
TARM,5/1/17,70.92378991,0.229779085,70.4,71.4,2976,2976
TARM,6/1/17,71.60041704,0.265851734,70.8,72.2,2880,2880
TARM,7/1/17,72.06989242,0.139557627,71.8,72.6,2976,2976
TARM,8/1/17,72.6778223,0.372687324,68.7,73.4,2976,2976
TARM,9/1/17,73.62861152,0.288124529,72.3,74.6,2880,2880
TARM,10/1/17,74.52755356,0.260019448,73.7,75.6,2976,2976
TARM,11/1/17,75.61084826,1.535053852,65.8,78.2,2876,2878
TARM,12/1/17,67.3389784,0.867186828,62,69.2,2976,2976
TARM,1/1/18,70.81532276,1.234302553,67.9,73.1,2976,2976
TARM,2/1/18,73.74985092,0.636304011,71.9,75.8,2688,2688
TARM,3/1/18,74.77889765,0.325330679,72.6,75.6,2976,2976
TARM,4/1/18,76.09875014,0.704324789,75.1,78.2,2880,2880
TARM,5/1/18,77.70376345,0.474831397,76.8,79.4,2976,2976
TARM,6/1/18,78.03041659,0.501701025,75,81,2880,2880
TARM,7/1/18,78.57177472,0.758244035,76,79.7,2976,2976
TARM,8/1/18,79.82809139,0.322224352,78.4,80.7,2976,2976
TARM,9/1/18,81.09013911,0.494274464,79.8,82.5,2880,2880
TARM,10/1/18,82.35430124,0.589278005,81,84.6,2976,2976
TARM,11/1/18,85.03499982,1.296801062,83.1,88.3,2880,2880
TARM,12/1/18,82.55854659,7.05851916,71.8,90.7,2972,1690
TARM,1/1/19,76.46720424,1.54856829,72.6,79.6,2976,0
TARM,2/1/19,80.38823501,0.656311214,78.7,81.6,2686,2
TARM,3/1/19,81.61196256,0.188273041,81.1,82.4,2976,0
TARM,4/1/19,82.00055568,0.142909492,81.6,82.6,2880,0
TARM,5/1/19,82.48938166,0.202126742,82.1,83.1,2976,0
TARM,6/1/19,83.03430571,0.283438146,79.1,83.6,2880,0
TARM,7/1/19,84.07647833,0.351283212,82.9,84.9,2976,0
TARM,8/1/19,84.77258062,0.242010612,84.3,85.5,2976,0
TARM,9/1/19,85.66722214,0.218576196,85.1,86.6,2880,0
TARM,10/1/19,86.5864243,0.383163261,85.8,87.9,2976,0
TARM,11/1/19,89.06958324,1.061985554,87,91.2,2880,0
TARM,12/1/19,87.24546989,10.5119239,61.2,93.8,2969,430
TARM,1/1/20,61.1840053,1.704226919,56.8,64.2,2976,2976
TARM,2/1/20,63.38922396,1.414360279,56.4,65.5,2784,2784
TARM,3/1/20,65.1865595,0.788442372,59.5,66.1,2976,2976
TARM,4/1/20,66.12194498,0.328590842,65.6,66.9,2880,2880
TARM,5/1/20,67.04825257,0.195882058,66.3,67.8,2976,2976
TARM,6/1/20,67.57388986,0.448328816,67.1,69.1,2880,2880
TARM,7/1/20,69.168548,0.293764561,68.5,70.2,2976,2976
TARM,8/1/20,69.98387097,0.345548761,67.5,70.7,2976,2976
TARM,9/1/20,70.64986063,0.239601386,69.1,72.2,2880,2880
TARM,10/1/20,71.52096788,0.392008997,70.6,72.6,2976,2976
TARM,11/1/20,73.26083356,0.749866582,72.2,75.1,2880,2880
TARM,12/1/20,78.19579987,2.317220701,74.6,83.3,2976,2976
TARM,1/1/21,86.03723128,1.948823712,82.8,89.8,2976,2976
TARM,2/1/21,91.21607178,1.404923265,89.1,94.2,2688,2688
TARM,3/1/21,93.35739281,0.635487376,91.5,94.5,2976,2976
TARM,4/1/21,94.2648608,0.139970755,93.7,94.8,2880,2880
TARM,5/1/21,94.80174714,0.266461895,94,95.6,2976,2976
TARM,6/1/21,95.79638872,0.345447609,94.9,96.7,2880,2880
TARM,7/1/21,96.29798401,0.22498409,95.4,97.2,2976,2976
TARM,8/1/21,97.2775541,3.576899776,0,98.6,2976,2976
TARM,9/1/21,98.50305488,0.274955039,97.4,99.7,2880,2880
TARM,10/1/21,100.3080648,0.736497657,98.5,101.6,2976,2976
TARM,11/1/21,102.5629166,0.901821631,100,104.5,2880,2880
TARM,12/1/21,100.2049629,16.57800575,59.6,111.9,2962,2967
TARM,1/1/22,61.92836018,1.562885338,57.4,65.2,2976,2976
TARM,2/1/22,66.47544602,1.02467113,64.5,68.3,2688,2688
TARM,3/1/22,68.8779574,0.894231235,67.5,70.2,2976,2976
TARM,4/1/22,70.10819356,0.258463298,68.5,70.6,2880,2880
TARM,5/1/22,71.00833313,0.463800265,70.3,72.3,2976,2976
TARM,6/1/22,72.59097194,0.248123277,71.5,73.1,2880,2880
TARM,7/1/22,73.78454299,0.578833498,72.4,75.3,2976,2976
TARM,8/1/22,75.26169365,0.263035555,74.5,75.9,2976,2976
TARM,9/1/22,75.80333338,0.385805965,75.1,77,2880,2880
TARM,10/1/22,77.3463706,0.377893598,76.3,78.3,2976,2976
TARM,11/1/22,78.66958341,0.801426188,77.1,80.8,2880,2880
TARM,12/1/22,81.67108954,0.998900793,79.8,83.6,1854,1854